Time,TemperatureF,DewpointF,PressureIn,WindDirection,WindDirectionDegrees,WindSpeedMPH,WindSpeedGustMPH,Humidity,HourlyPrecipIn,Conditions,Clouds,dailyrainin,SoftwareType,DateUTC
2017-02-24 00:04:00,45.1,-87.6,29.84,South,176,0.0,0.0,0,0.00,n/a,n/a,-99.99,Henriksen +1-Wire,2017-02-24 05:04:00,
2017-02-24 00:10:00,44.4,-88.0,29.84,South,178,0.0,0.0,0,0.00,n/a,n/a,-99.99,Henriksen +1-Wire,2017-02-24 05:10:00,
2017-02-24 00:16:00,43.9,-88.3,29.84,South,177,0.0,0.0,0,0.00,n/a,n/a,-99.99,Henriksen +1-Wire,2017-02-24 05:16:00,
2017-02-24 00:22:00,43.7,-88.4,29.84,South,174,0.0,0.0,0,0.00,n/a,n/a,-99.99,Henriksen +1-Wire,2017-02-24 05:22:00,
2017-02-24 00:28:00,43.7,-88.4,29.84,South,178,0.0,0.0,0,0.00,n/a,n/a,-99.99,Henriksen +1-Wire,2017-02-24 05:28:00,
2017-02-24 00:34:00,43.4,-88.5,29.85,South,176,0.0,0.0,0,0.00,n/a,n/a,-99.99,Henriksen +1-Wire,2017-02-24 05:34:00,
2017-02-24 00:40:00,43.2,-88.6,29.84,South,178,0.0,0.0,0,0.00,n/a,n/a,-99.99,Henriksen +1-Wire,2017-02-24 05:40:00,
2017-02-24 00:46:00,43.2,-88.6,29.85,South,177,0.0,0.0,0,0.00,n/a,n/a,-99.99,Henriksen +1-Wire,2017-02-24 05:46:00,
2017-02-24 00:52:00,43.3,-88.6,29.85,South,174,0.0,0.0,0,0.00,n/a,n/a,-99.99,Henriksen +1-Wire,2017-02-24 05:52:00,
2017-02-24 00:58:00,43.2,-88.6,29.85,South,178,0.0,0.0,0,0.00,n/a,n/a,-99.99,Henriksen +1-Wire,2017-02-24 05:58:00,
2017-02-24 01:04:00,42.9,-88.8,29.85,South,176,0.0,0.0,0,0.00,n/a,n/a,-99.99,Henriksen +1-Wire,2017-02-24 06:04:00,
2017-02-24 01:10:00,42.5,-89.0,29.86,South,178,0.0,0.0,0,0.00,n/a,n/a,-99.99,Henriksen +1-Wire,2017-02-24 06:10:00,
2017-02-24 01:16:00,42.3,-89.1,29.86,South,177,0.0,0.0,0,0.00,n/a,n/a,-99.99,Henriksen +1-Wire,2017-02-24 06:16:00,
2017-02-24 01:22:00,42.2,-89.2,29.86,South,174,0.0,0.0,0,0.00,n/a,n/a,-99.99,Henriksen +1-Wire,2017-02-24 06:22:00,
2017-02-24 01:28:00,42.1,-89.2,29.86,South,178,0.0,0.0,0,0.00,n/a,n/a,-99.99,Henriksen +1-Wire,2017-02-24 06:28:00,
2017-02-24 01:34:00,42.2,-89.2,29.86,South,176,0.0,0.0,0,0.00,n/a,n/a,-99.99,Henriksen +1-Wire,2017-02-24 06:34:00,
2017-02-24 01:40:00,42.5,-89.0,29.86,South,178,0.0,0.0,0,0.00,n/a,n/a,-99.99,Henriksen +1-Wire,2017-02-24 06:40:00,
2017-02-24 01:46:00,42.6,-89.0,29.86,South,177,0.0,0.0,0,0.00,n/a,n/a,-99.99,Henriksen +1-Wire,2017-02-24 06:46:00,
2017-02-24 01:52:00,42.0,-89.3,29.86,South,174,0.0,0.0,0,0.00,n/a,n/a,-99.99,Henriksen +1-Wire,2017-02-24 06:52:00,
2017-02-24 01:58:00,41.8,-89.4,29.86,South,178,0.0,0.0,0,0.00,n/a,n/a,-99.99,Henriksen +1-Wire,2017-02-24 06:58:00,
2017-02-24 02:04:00,41.9,-89.3,29.86,South,176,0.0,0.0,0,0.00,n/a,n/a,-99.99,Henriksen +1-Wire,2017-02-24 07:04:00,
2017-02-24 02:10:00,42.1,-89.2,29.86,South,178,0.0,0.0,0,0.00,n/a,n/a,-99.99,Henriksen +1-Wire,2017-02-24 07:10:00,
2017-02-24 02:16:00,42.1,-89.3,29.86,South,177,0.0,0.0,0,0.00,n/a,n/a,-99.99,Henriksen +1-Wire,2017-02-24 07:16:00,
2017-02-24 02:22:00,42.2,-89.2,29.86,South,174,0.0,0.0,0,0.00,n/a,n/a,-99.99,Henriksen +1-Wire,2017-02-24 07:22:00,
2017-02-24 02:28:00,43.0,-88.7,29.85,South,178,0.0,0.0,0,0.00,n/a,n/a,-99.99,Henriksen +1-Wire,2017-02-24 07:28:00,
2017-02-24 02:34:00,43.6,-88.4,29.85,South,176,0.0,0.0,0,0.00,n/a,n/a,-99.99,Henriksen +1-Wire,2017-02-24 07:34:00,
2017-02-24 02:40:00,42.6,-88.9,29.85,South,178,0.0,0.0,0,0.00,n/a,n/a,-99.99,Henriksen +1-Wire,2017-02-24 07:40:00,
2017-02-24 02:46:00,42.9,-88.8,29.86,South,177,0.0,0.0,0,0.00,n/a,n/a,-99.99,Henriksen +1-Wire,2017-02-24 07:46:00,
2017-02-24 02:52:00,42.8,-88.8,29.86,South,174,0.0,0.0,0,0.00,n/a,n/a,-99.99,Henriksen +1-Wire,2017-02-24 07:52:00,
2017-02-24 02:58:00,42.5,-89.0,29.86,South,178,0.0,0.0,0,0.00,n/a,n/a,-99.99,Henriksen +1-Wire,2017-02-24 07:58:00,
2017-02-24 03:04:00,42.5,-89.0,29.86,South,176,0.0,0.0,0,0.00,n/a,n/a,-99.99,Henriksen +1-Wire,2017-02-24 08:04:00,
2017-02-24 03:10:00,43.4,-88.5,29.85,South,185,0.0,0.0,0,0.00,n/a,n/a,-99.99,Henriksen +1-Wire,2017-02-24 08:10:00,
2017-02-24 03:16:00,43.1,-88.7,29.86,SSW,200,0.0,0.0,0,0.01,n/a,n/a,-99.99,Henriksen +1-Wire,2017-02-24 08:16:00,
2017-02-24 03:22:00,42.9,-88.8,29.86,SSW,196,0.0,0.0,0,0.01,n/a,n/a,-99.99,Henriksen +1-Wire,2017-02-24 08:22:00,
2017-02-24 03:28:00,42.8,-88.9,29.86,SSW,200,0.0,0.0,0,0.01,n/a,n/a,-99.99,Henriksen +1-Wire,2017-02-24 08:28:00,
2017-02-24 03:34:00,42.4,-89.1,29.87,SSW,199,0.0,0.0,0,0.01,n/a,n/a,-99.99,Henriksen +1-Wire,2017-02-24 08:34:00,
2017-02-24 03:40:00,42.4,-89.0,29.86,SSW,201,0.0,0.0,0,0.01,n/a,n/a,-99.99,Henriksen +1-Wire,2017-02-24 08:40:00,
2017-02-24 03:46:00,42.6,-88.9,29.87,SSW,200,0.0,0.0,0,0.01,n/a,n/a,-99.99,Henriksen +1-Wire,2017-02-24 08:46:00,
2017-02-24 03:52:00,42.5,-89.0,29.87,SSW,196,0.0,0.0,0,0.01,n/a,n/a,-99.99,Henriksen +1-Wire,2017-02-24 08:52:00,
2017-02-24 03:58:00,42.5,-89.0,29.87,SSW,200,0.0,0.0,0,0.01,n/a,n/a,-99.99,Henriksen +1-Wire,2017-02-24 08:58:00,
2017-02-24 04:04:00,42.4,-89.1,29.87,SSW,199,0.0,0.0,0,0.01,n/a,n/a,-99.99,Henriksen +1-Wire,2017-02-24 09:04:00,
2017-02-24 04:10:00,42.9,-88.8,29.87,SSW,201,0.0,0.0,0,0.01,n/a,n/a,-99.99,Henriksen +1-Wire,2017-02-24 09:10:00,
2017-02-24 04:16:00,42.7,-88.9,29.87,SSW,200,0.0,0.0,0,0.00,n/a,n/a,-99.99,Henriksen +1-Wire,2017-02-24 09:16:00,
2017-02-24 04:22:00,42.6,-88.9,29.88,SSW,196,0.0,0.0,0,0.00,n/a,n/a,-99.99,Henriksen +1-Wire,2017-02-24 09:22:00,
2017-02-24 04:28:00,42.5,-89.0,29.88,SSW,200,0.0,0.0,0,0.00,n/a,n/a,-99.99,Henriksen +1-Wire,2017-02-24 09:28:00,
2017-02-24 04:34:00,42.4,-89.1,29.88,SSW,199,0.0,0.0,0,0.00,n/a,n/a,-99.99,Henriksen +1-Wire,2017-02-24 09:34:00,
2017-02-24 04:40:00,42.7,-88.9,29.89,SSW,201,0.0,0.0,0,0.00,n/a,n/a,-99.99,Henriksen +1-Wire,2017-02-24 09:40:00,
2017-02-24 04:46:00,42.6,-88.9,29.88,SSW,200,0.0,0.0,0,0.00,n/a,n/a,-99.99,Henriksen +1-Wire,2017-02-24 09:46:00,
2017-02-24 04:52:00,42.8,-88.9,29.89,SSW,196,0.0,0.0,0,0.00,n/a,n/a,-99.99,Henriksen +1-Wire,2017-02-24 09:52:00,
2017-02-24 04:58:00,43.0,-88.7,29.88,SSW,200,0.0,0.0,0,0.00,n/a,n/a,-99.99,Henriksen +1-Wire,2017-02-24 09:58:00,
2017-02-24 05:04:00,42.9,-88.8,29.88,SSW,199,0.0,0.0,0,0.00,n/a,n/a,-99.99,Henriksen +1-Wire,2017-02-24 10:04:00,
2017-02-24 05:10:00,43.3,-88.6,29.88,SSW,201,0.0,0.0,0,0.00,n/a,n/a,-99.99,Henriksen +1-Wire,2017-02-24 10:10:00,
2017-02-24 05:16:00,42.9,-88.8,29.87,SSW,200,0.0,0.0,0,0.00,n/a,n/a,-99.99,Henriksen +1-Wire,2017-02-24 10:16:00,
2017-02-24 05:22:00,42.6,-89.0,29.88,SSW,196,0.0,0.0,0,0.00,n/a,n/a,-99.99,Henriksen +1-Wire,2017-02-24 10:22:00,
2017-02-24 05:28:00,42.7,-88.9,29.88,SSW,200,0.0,0.0,0,0.00,n/a,n/a,-99.99,Henriksen +1-Wire,2017-02-24 10:28:00,
2017-02-24 05:34:00,43.0,-88.7,29.88,SSW,199,0.0,0.0,0,0.00,n/a,n/a,-99.99,Henriksen +1-Wire,2017-02-24 10:34:00,
2017-02-24 05:40:00,42.9,-88.8,29.89,SSW,201,0.0,0.0,0,0.00,n/a,n/a,-99.99,Henriksen +1-Wire,2017-02-24 10:40:00,
2017-02-24 05:46:00,43.1,-88.7,29.89,SSW,200,0.0,0.0,0,0.00,n/a,n/a,-99.99,Henriksen +1-Wire,2017-02-24 10:46:00,
2017-02-24 05:52:00,42.8,-88.8,29.88,SSW,196,0.0,0.0,0,0.00,n/a,n/a,-99.99,Henriksen +1-Wire,2017-02-24 10:52:00,
2017-02-24 05:58:00,43.4,-88.5,29.88,SSW,200,0.0,0.0,0,0.00,n/a,n/a,-99.99,Henriksen +1-Wire,2017-02-24 10:58:00,
2017-02-24 06:04:00,43.6,-88.4,29.88,SSW,199,0.0,0.0,0,0.00,n/a,n/a,-99.99,Henriksen +1-Wire,2017-02-24 11:04:00,
2017-02-24 06:10:00,43.4,-88.5,29.88,SSW,201,0.0,0.0,0,0.00,n/a,n/a,-99.99,Henriksen +1-Wire,2017-02-24 11:10:00,
2017-02-24 06:16:00,43.5,-88.5,29.88,SSW,200,0.0,0.0,0,0.00,n/a,n/a,-99.99,Henriksen +1-Wire,2017-02-24 11:16:00,
2017-02-24 06:22:00,43.6,-88.4,29.88,SSW,196,0.0,0.0,0,0.00,n/a,n/a,-99.99,Henriksen +1-Wire,2017-02-24 11:22:00,
2017-02-24 06:28:00,43.4,-88.5,29.88,SSW,200,0.0,0.0,0,0.00,n/a,n/a,-99.99,Henriksen +1-Wire,2017-02-24 11:28:00,
2017-02-24 06:33:00,43.2,-88.6,29.88,SSW,199,0.0,0.0,0,0.00,n/a,n/a,-99.99,Henriksen +1-Wire,2017-02-24 11:33:00,
2017-02-24 06:40:00,43.1,-88.7,29.88,SSW,201,0.0,0.0,0,0.00,n/a,n/a,-99.99,Henriksen +1-Wire,2017-02-24 11:40:00,
2017-02-24 06:46:00,43.2,-88.6,29.88,SSW,200,0.0,0.0,0,0.00,n/a,n/a,-99.99,Henriksen +1-Wire,2017-02-24 11:46:00,
2017-02-24 06:52:00,43.9,-88.3,29.89,SSW,196,0.0,0.0,0,0.00,n/a,n/a,-99.99,Henriksen +1-Wire,2017-02-24 11:52:00,
2017-02-24 06:58:00,43.3,-88.6,29.89,SSW,200,0.0,0.0,0,0.00,n/a,n/a,-99.99,Henriksen +1-Wire,2017-02-24 11:58:00,
2017-02-24 07:04:00,43.4,-88.5,29.89,SSW,199,0.0,0.0,0,0.00,n/a,n/a,-99.99,Henriksen +1-Wire,2017-02-24 12:04:00,
2017-02-24 07:10:00,43.7,-88.4,29.89,SSW,201,0.0,0.0,0,0.00,n/a,n/a,-99.99,Henriksen +1-Wire,2017-02-24 12:10:00,
2017-02-24 07:16:00,43.6,-88.4,29.90,SSW,200,0.0,0.0,0,0.00,n/a,n/a,-99.99,Henriksen +1-Wire,2017-02-24 12:16:00,
2017-02-24 07:22:00,43.6,-88.4,29.90,SSW,196,0.0,0.0,0,0.00,n/a,n/a,-99.99,Henriksen +1-Wire,2017-02-24 12:22:00,
2017-02-24 07:28:00,44.0,-88.2,29.90,SSW,200,0.0,0.0,0,0.00,n/a,n/a,-99.99,Henriksen +1-Wire,2017-02-24 12:28:00,
2017-02-24 07:34:00,44.2,-88.1,29.90,SSW,199,0.0,0.0,0,0.00,n/a,n/a,-99.99,Henriksen +1-Wire,2017-02-24 12:34:00,
2017-02-24 07:40:00,45.4,-87.4,29.90,SSW,201,0.0,0.0,0,0.00,n/a,n/a,-99.99,Henriksen +1-Wire,2017-02-24 12:40:00,
2017-02-24 07:46:00,46.5,-86.8,29.90,SSW,200,0.0,0.0,0,0.00,n/a,n/a,-99.99,Henriksen +1-Wire,2017-02-24 12:46:00,
2017-02-24 07:52:00,47.5,-86.3,29.91,SSW,196,0.0,0.0,0,0.00,n/a,n/a,-99.99,Henriksen +1-Wire,2017-02-24 12:52:00,
2017-02-24 07:58:00,48.0,-86.0,29.91,SSW,200,0.0,0.0,0,0.00,n/a,n/a,-99.99,Henriksen +1-Wire,2017-02-24 12:58:00,
2017-02-24 08:04:00,48.8,-85.6,29.91,SSW,199,0.0,0.0,0,0.00,n/a,n/a,-99.99,Henriksen +1-Wire,2017-02-24 13:04:00,
2017-02-24 08:10:00,50.3,-84.8,29.91,SW,227,0.0,0.0,0,0.00,n/a,n/a,-99.99,Henriksen +1-Wire,2017-02-24 13:10:00,
2017-02-24 08:16:00,50.8,-84.5,29.91,West,267,0.0,0.0,0,0.00,n/a,n/a,-99.99,Henriksen +1-Wire,2017-02-24 13:16:00,
2017-02-24 08:22:00,51.1,-84.4,29.90,ENE,61,0.0,0.0,0,0.00,n/a,n/a,-99.99,Henriksen +1-Wire,2017-02-24 13:22:00,
2017-02-24 08:28:00,51.7,-84.0,29.90,ENE,74,0.0,0.0,0,0.00,n/a,n/a,-99.99,Henriksen +1-Wire,2017-02-24 13:28:00,
2017-02-24 08:34:00,52.1,-83.8,29.89,ESE,108,0.0,0.0,0,0.00,n/a,n/a,-99.99,Henriksen +1-Wire,2017-02-24 13:34:00,
2017-02-24 08:40:00,53.0,-83.3,29.89,East,93,0.0,0.0,0,0.00,n/a,n/a,-99.99,Henriksen +1-Wire,2017-02-24 13:40:00,
2017-02-24 08:46:00,53.8,-82.9,29.88,East,85,0.0,0.0,0,0.00,n/a,n/a,-99.99,Henriksen +1-Wire,2017-02-24 13:46:00,
2017-02-24 08:52:00,54.6,-82.5,29.89,ENE,76,0.0,0.0,0,0.00,n/a,n/a,-99.99,Henriksen +1-Wire,2017-02-24 13:52:00,
2017-02-24 08:58:00,55.4,-82.0,29.90,East,95,0.0,0.0,0,0.00,n/a,n/a,-99.99,Henriksen +1-Wire,2017-02-24 13:58:00,
2017-02-24 09:04:00,55.9,-81.8,29.90,East,92,0.0,0.0,0,0.00,n/a,n/a,-99.99,Henriksen +1-Wire,2017-02-24 14:04:00,
2017-02-24 09:10:00,56.4,-81.5,29.90,ESE,109,0.0,0.0,0,0.00,n/a,n/a,-99.99,Henriksen +1-Wire,2017-02-24 14:10:00,
2017-02-24 09:16:00,57.0,-81.2,29.90,ESE,109,0.0,0.4,0,0.00,n/a,n/a,-99.99,Henriksen +1-Wire,2017-02-24 14:16:00,
2017-02-24 09:22:00,57.6,-80.8,29.90,SE,136,0.0,0.4,0,0.00,n/a,n/a,-99.99,Henriksen +1-Wire,2017-02-24 14:22:00,
2017-02-24 09:28:00,58.4,-80.4,29.90,ESE,122,0.0,0.3,0,0.00,n/a,n/a,-99.99,Henriksen +1-Wire,2017-02-24 14:28:00,
2017-02-24 09:34:00,58.4,-80.4,29.90,SSE,148,0.0,0.3,0,0.00,n/a,n/a,-99.99,Henriksen +1-Wire,2017-02-24 14:34:00,
2017-02-24 09:40:00,58.8,-80.2,29.90,SE,132,0.0,0.0,0,0.00,n/a,n/a,-99.99,Henriksen +1-Wire,2017-02-24 14:40:00,
2017-02-24 09:46:00,59.0,-80.1,29.90,SE,132,0.0,0.0,0,0.00,n/a,n/a,-99.99,Henriksen +1-Wire,2017-02-24 14:46:00,
2017-02-24 09:52:00,59.0,-80.1,29.90,SSE,160,0.0,0.0,0,0.00,n/a,n/a,-99.99,Henriksen +1-Wire,2017-02-24 14:52:00,
2017-02-24 09:58:00,59.2,-80.0,29.90,South,177,0.0,0.0,0,0.00,n/a,n/a,-99.99,Henriksen +1-Wire,2017-02-24 14:58:00,
2017-02-24 10:04:00,59.7,-79.7,29.90,SSE,160,0.0,0.0,0,0.00,n/a,n/a,-99.99,Henriksen +1-Wire,2017-02-24 15:04:00,
2017-02-24 10:10:00,60.7,-79.2,29.90,SSE,155,0.0,0.0,0,0.00,n/a,n/a,-99.99,Henriksen +1-Wire,2017-02-24 15:10:00,
2017-02-24 10:16:00,60.9,-79.1,29.90,SE,129,0.0,0.4,0,0.00,n/a,n/a,-99.99,Henriksen +1-Wire,2017-02-24 15:16:00,
2017-02-24 10:22:00,61.2,-78.9,29.90,SE,145,0.0,0.4,0,0.00,n/a,n/a,-99.99,Henriksen +1-Wire,2017-02-24 15:22:00,
2017-02-24 10:28:00,61.9,-78.5,29.90,ESE,110,0.0,0.0,0,0.00,n/a,n/a,-99.99,Henriksen +1-Wire,2017-02-24 15:28:00,
2017-02-24 10:34:00,61.8,-78.6,29.90,ESE,123,0.0,0.0,0,0.00,n/a,n/a,-99.99,Henriksen +1-Wire,2017-02-24 15:34:00,
2017-02-24 10:40:00,61.6,-78.7,29.89,SE,130,0.0,0.0,0,0.00,n/a,n/a,-99.99,Henriksen +1-Wire,2017-02-24 15:40:00,
2017-02-24 10:46:00,61.8,-78.6,29.89,SE,126,0.0,0.0,0,0.00,n/a,n/a,-99.99,Henriksen +1-Wire,2017-02-24 15:46:00,
2017-02-24 10:52:00,62.0,-78.5,29.89,ESE,103,0.0,0.6,0,0.00,n/a,n/a,-99.99,Henriksen +1-Wire,2017-02-24 15:52:00,
2017-02-24 10:58:00,61.8,-78.6,29.89,East,94,0.0,0.6,0,0.00,n/a,n/a,-99.99,Henriksen +1-Wire,2017-02-24 15:58:00,
2017-02-24 11:04:00,61.8,-78.6,29.89,SE,132,0.0,0.0,0,0.00,n/a,n/a,-99.99,Henriksen +1-Wire,2017-02-24 16:04:00,
2017-02-24 11:10:00,61.9,-78.5,29.89,ESE,117,0.0,0.0,0,0.00,n/a,n/a,-99.99,Henriksen +1-Wire,2017-02-24 16:10:00,
2017-02-24 11:16:00,61.8,-78.6,29.88,SE,142,0.0,0.0,0,0.00,n/a,n/a,-99.99,Henriksen +1-Wire,2017-02-24 16:16:00,
2017-02-24 11:22:00,62.0,-78.5,29.88,SE,136,0.0,0.0,0,0.00,n/a,n/a,-99.99,Henriksen +1-Wire,2017-02-24 16:22:00,
2017-02-24 11:28:00,62.1,-78.4,29.89,SSE,158,0.0,0.4,0,0.00,n/a,n/a,-99.99,Henriksen +1-Wire,2017-02-24 16:28:00,
2017-02-24 11:34:00,62.7,-78.1,29.88,SSE,147,0.0,0.4,0,0.00,n/a,n/a,-99.99,Henriksen +1-Wire,2017-02-24 16:34:00,
2017-02-24 11:40:00,63.3,-77.8,29.88,SE,126,0.0,0.2,0,0.00,n/a,n/a,-99.99,Henriksen +1-Wire,2017-02-24 16:40:00,
2017-02-24 11:46:00,63.9,-77.5,29.87,SSE,148,0.0,0.4,0,0.00,n/a,n/a,-99.99,Henriksen +1-Wire,2017-02-24 16:46:00,
2017-02-24 11:52:00,64.6,-77.1,29.87,ESE,119,0.0,0.4,0,0.00,n/a,n/a,-99.99,Henriksen +1-Wire,2017-02-24 16:52:00,
2017-02-24 11:58:00,65.3,-76.7,29.87,ESE,119,0.0,0.3,0,0.00,n/a,n/a,-99.99,Henriksen +1-Wire,2017-02-24 16:58:00,
2017-02-24 12:04:00,65.8,-76.5,29.87,ESE,112,0.0,0.3,0,0.00,n/a,n/a,-99.99,Henriksen +1-Wire,2017-02-24 17:04:00,
2017-02-24 12:10:00,66.4,-76.1,29.86,ESE,121,0.0,0.0,0,0.00,n/a,n/a,-99.99,Henriksen +1-Wire,2017-02-24 17:10:00,
2017-02-24 12:16:00,67.0,-75.8,29.85,SSE,156,0.0,0.0,0,0.00,n/a,n/a,-99.99,Henriksen +1-Wire,2017-02-24 17:16:00,
2017-02-24 12:22:00,67.8,-75.4,29.86,SSE,160,0.2,5.5,0,0.00,n/a,n/a,-99.99,Henriksen +1-Wire,2017-02-24 17:22:00,
2017-02-24 12:28:00,68.3,-75.1,29.85,SSE,158,1.0,9.9,0,0.00,n/a,n/a,-99.99,Henriksen +1-Wire,2017-02-24 17:28:00,
2017-02-24 12:34:00,68.4,-75.1,29.85,SSE,159,0.5,9.9,0,0.00,n/a,n/a,-99.99,Henriksen +1-Wire,2017-02-24 17:34:00,
2017-02-24 12:40:00,68.1,-75.3,29.85,SSE,163,0.8,11.1,0,0.00,n/a,n/a,-99.99,Henriksen +1-Wire,2017-02-24 17:40:00,
2017-02-24 12:46:00,68.0,-75.3,29.84,SSE,163,1.1,11.1,0,0.00,n/a,n/a,-99.99,Henriksen +1-Wire,2017-02-24 17:46:00,
2017-02-24 12:52:00,67.8,-75.4,29.84,SSE,157,0.2,8.3,0,0.00,n/a,n/a,-99.99,Henriksen +1-Wire,2017-02-24 17:52:00,
2017-02-24 12:58:00,67.8,-75.4,29.84,SSE,160,0.0,6.1,0,0.00,n/a,n/a,-99.99,Henriksen +1-Wire,2017-02-24 17:58:00,
2017-02-24 13:04:00,67.9,-75.3,29.84,South,175,0.0,0.4,0,0.00,n/a,n/a,-99.99,Henriksen +1-Wire,2017-02-24 18:04:00,
2017-02-24 13:10:00,68.5,-75.0,29.83,SSE,163,0.0,0.0,0,0.00,n/a,n/a,-99.99,Henriksen +1-Wire,2017-02-24 18:10:00,
2017-02-24 13:16:00,69.7,-74.4,29.83,SSE,162,0.0,0.4,0,0.00,n/a,n/a,-99.99,Henriksen +1-Wire,2017-02-24 18:16:00,
2017-02-24 13:22:00,70.2,-74.1,29.82,SSE,159,0.2,9.6,0,0.00,n/a,n/a,-99.99,Henriksen +1-Wire,2017-02-24 18:22:00,
2017-02-24 13:28:00,70.8,-73.8,29.82,SSE,159,0.0,8.5,0,0.00,n/a,n/a,-99.99,Henriksen +1-Wire,2017-02-24 18:28:00,
2017-02-24 13:34:00,71.5,-73.5,29.82,ESE,119,0.2,2.2,0,0.00,n/a,n/a,-99.99,Henriksen +1-Wire,2017-02-24 18:34:00,
2017-02-24 13:40:00,71.5,-73.4,29.82,SE,126,0.2,8.3,0,0.00,n/a,n/a,-99.99,Henriksen +1-Wire,2017-02-24 18:40:00,
2017-02-24 13:46:00,71.8,-73.3,29.82,SE,128,0.2,8.3,0,0.00,n/a,n/a,-99.99,Henriksen +1-Wire,2017-02-24 18:46:00,
2017-02-24 13:52:00,71.8,-73.3,29.82,South,184,0.2,10.7,0,0.00,n/a,n/a,-99.99,Henriksen +1-Wire,2017-02-24 18:52:00,
2017-02-24 13:58:00,71.7,-73.3,29.81,SSE,161,0.4,9.9,0,0.00,n/a,n/a,-99.99,Henriksen +1-Wire,2017-02-24 18:58:00,
2017-02-24 14:04:00,71.8,-73.3,29.81,SE,129,0.2,9.9,0,0.00,n/a,n/a,-99.99,Henriksen +1-Wire,2017-02-24 19:04:00,
2017-02-24 14:10:00,71.7,-73.3,29.81,SSE,157,1.0,8.6,0,0.00,n/a,n/a,-99.99,Henriksen +1-Wire,2017-02-24 19:10:00,
2017-02-24 14:16:00,72.0,-73.2,29.81,SE,126,0.4,6.7,0,0.00,n/a,n/a,-99.99,Henriksen +1-Wire,2017-02-24 19:16:00,
2017-02-24 14:22:00,71.9,-73.2,29.81,SSE,168,1.9,8.0,0,0.00,n/a,n/a,-99.99,Henriksen +1-Wire,2017-02-24 19:22:00,
2017-02-24 14:28:00,71.9,-73.2,29.81,South,187,0.1,8.0,0,0.00,n/a,n/a,-99.99,Henriksen +1-Wire,2017-02-24 19:28:00,
2017-02-24 14:34:00,72.2,-73.1,29.81,SE,130,0.3,8.5,0,0.00,n/a,n/a,-99.99,Henriksen +1-Wire,2017-02-24 19:34:00,
2017-02-24 14:40:00,72.4,-73.0,29.81,SSE,166,0.1,8.5,0,0.00,n/a,n/a,-99.99,Henriksen +1-Wire,2017-02-24 19:40:00,
2017-02-24 14:46:00,72.6,-72.8,29.80,SSE,158,0.0,4.1,0,0.00,n/a,n/a,-99.99,Henriksen +1-Wire,2017-02-24 19:46:00,
2017-02-24 14:52:00,72.9,-72.7,29.80,South,177,0.4,11.6,0,0.00,n/a,n/a,-99.99,Henriksen +1-Wire,2017-02-24 19:52:00,
2017-02-24 14:58:00,73.3,-72.5,29.80,SSE,157,0.1,9.3,0,0.00,n/a,n/a,-99.99,Henriksen +1-Wire,2017-02-24 19:58:00,
2017-02-24 15:04:00,73.3,-72.5,29.80,SSE,155,4.4,14.4,0,0.00,n/a,n/a,-99.99,Henriksen +1-Wire,2017-02-24 20:04:00,
2017-02-24 15:10:00,73.2,-72.6,29.80,SSE,161,0.2,14.4,0,0.00,n/a,n/a,-99.99,Henriksen +1-Wire,2017-02-24 20:10:00,
2017-02-24 15:16:00,73.3,-72.5,29.80,SSE,155,0.5,4.8,0,0.00,n/a,n/a,-99.99,Henriksen +1-Wire,2017-02-24 20:16:00,
2017-02-24 15:22:00,73.2,-72.6,29.79,SE,140,1.7,9.3,0,0.00,n/a,n/a,-99.99,Henriksen +1-Wire,2017-02-24 20:22:00,
2017-02-24 15:28:00,72.8,-72.8,29.79,SSE,160,1.9,9.9,0,0.00,n/a,n/a,-99.99,Henriksen +1-Wire,2017-02-24 20:28:00,
2017-02-24 15:34:00,72.7,-72.8,29.79,South,184,0.4,9.9,0,0.00,n/a,n/a,-99.99,Henriksen +1-Wire,2017-02-24 20:34:00,
2017-02-24 15:40:00,72.7,-72.8,29.79,SSE,161,1.1,8.9,0,0.00,n/a,n/a,-99.99,Henriksen +1-Wire,2017-02-24 20:40:00,
2017-02-24 15:46:00,72.8,-72.8,29.80,SSE,159,0.3,8.9,0,0.00,n/a,n/a,-99.99,Henriksen +1-Wire,2017-02-24 20:46:00,
2017-02-24 15:52:00,72.9,-72.7,29.80,SSE,159,0.1,3.2,0,0.00,n/a,n/a,-99.99,Henriksen +1-Wire,2017-02-24 20:52:00,
2017-02-24 15:58:00,72.6,-72.9,29.80,SSE,155,0.7,8.6,0,0.00,n/a,n/a,-99.99,Henriksen +1-Wire,2017-02-24 20:58:00,
2017-02-24 16:04:00,72.7,-72.8,29.80,ESE,112,0.0,8.6,0,0.00,n/a,n/a,-99.99,Henriksen +1-Wire,2017-02-24 21:04:00,
2017-02-24 16:10:00,72.6,-72.9,29.80,ESE,121,0.0,3.2,0,0.00,n/a,n/a,-99.99,Henriksen +1-Wire,2017-02-24 21:10:00,
2017-02-24 16:16:00,72.1,-73.1,29.80,SE,142,0.2,3.2,0,0.00,n/a,n/a,-99.99,Henriksen +1-Wire,2017-02-24 21:16:00,
2017-02-24 16:22:00,71.7,-73.3,29.80,SSE,158,1.6,9.9,0,0.00,n/a,n/a,-99.99,Henriksen +1-Wire,2017-02-24 21:22:00,
2017-02-24 16:28:00,71.3,-73.5,29.80,SE,130,0.2,9.9,0,0.00,n/a,n/a,-99.99,Henriksen +1-Wire,2017-02-24 21:28:00,
2017-02-24 16:34:00,71.1,-73.7,29.80,SE,140,0.0,3.3,0,0.00,n/a,n/a,-99.99,Henriksen +1-Wire,2017-02-24 21:34:00,
2017-02-24 16:40:00,70.7,-73.9,29.80,SE,132,0.3,5.1,0,0.00,n/a,n/a,-99.99,Henriksen +1-Wire,2017-02-24 21:40:00,
2017-02-24 16:46:00,70.3,-74.1,29.80,SSE,148,0.3,11.4,0,0.00,n/a,n/a,-99.99,Henriksen +1-Wire,2017-02-24 21:46:00,
2017-02-24 16:52:00,69.8,-74.3,29.80,ESE,123,1.0,8.9,0,0.00,n/a,n/a,-99.99,Henriksen +1-Wire,2017-02-24 21:52:00,
2017-02-24 16:58:00,69.4,-74.6,29.80,SE,133,0.0,5.1,0,0.00,n/a,n/a,-99.99,Henriksen +1-Wire,2017-02-24 21:58:00,
2017-02-24 17:04:00,69.0,-74.8,29.80,SSE,159,0.1,1.3,0,0.00,n/a,n/a,-99.99,Henriksen +1-Wire,2017-02-24 22:04:00,
2017-02-24 17:10:00,68.9,-74.8,29.81,SE,125,0.5,4.1,0,0.00,n/a,n/a,-99.99,Henriksen +1-Wire,2017-02-24 22:10:00,
2017-02-24 17:16:00,68.6,-75.0,29.81,ESE,119,0.0,4.1,0,0.00,n/a,n/a,-99.99,Henriksen +1-Wire,2017-02-24 22:16:00,
2017-02-24 17:22:00,68.2,-75.2,29.82,SE,125,0.0,0.4,0,0.00,n/a,n/a,-99.99,Henriksen +1-Wire,2017-02-24 22:22:00,
2017-02-24 17:28:00,67.9,-75.4,29.82,SE,124,0.3,5.5,0,0.00,n/a,n/a,-99.99,Henriksen +1-Wire,2017-02-24 22:28:00,
2017-02-24 17:34:00,67.5,-75.6,29.82,SE,143,2.2,10.3,0,0.00,n/a,n/a,-99.99,Henriksen +1-Wire,2017-02-24 22:34:00,
2017-02-24 17:40:00,67.1,-75.8,29.82,SE,130,0.1,10.3,0,0.00,n/a,n/a,-99.99,Henriksen +1-Wire,2017-02-24 22:40:00,
2017-02-24 17:46:00,66.7,-76.0,29.82,SSE,150,0.0,11.7,0,0.00,n/a,n/a,-99.99,Henriksen +1-Wire,2017-02-24 22:46:00,
2017-02-24 17:52:00,66.4,-76.2,29.82,SE,124,0.1,2.1,0,0.00,n/a,n/a,-99.99,Henriksen +1-Wire,2017-02-24 22:52:00,
2017-02-24 17:58:00,65.9,-76.4,29.83,SE,129,0.4,3.6,0,0.00,n/a,n/a,-99.99,Henriksen +1-Wire,2017-02-24 22:58:00,
2017-02-24 18:04:00,65.6,-76.6,29.83,SE,126,0.0,3.6,0,0.00,n/a,n/a,-99.99,Henriksen +1-Wire,2017-02-24 23:04:00,